Regional Weather Roundup
Issued by NWS San Angelo, TX

Home | Current Version | Previous Version | Graphics & Text | Print | Product List | Glossary Off
Versions: 1 2 3 4 5 6 7 8 9 10 11 12 13 14 15 16 17 18 19 20 21 22 23 24 25 26 27 28 29 30 31 32 33 34 35 36 37 38 39 40 41 42 43 44 45 46 47 48 49 50

000
ASUS44 KSJT 301610
RWRSJT
WEST CENTRAL TEXAS REGIONAL WEATHER ROUNDUP
NATIONAL WEATHER SERVICE SAN ANGELO TX
1100 AM CDT TUE SEP 30 2014

NOTE: "FAIR" INDICATES FEW OR NO CLOUDS BELOW 12,000 FEET WITH NO
SIGNIFICANT WEATHER AND/OR OBSTRUCTIONS TO VISIBILITY.

TXZ049-054-064>066-071>073-076>078-098-099-113-114-127-128-139-140-
154-155-168>170-301700
...LOCATIONS ACROSS WEST CENTRAL TEXAS...

CITY           SKY/WX    TMP DP  RH WIND       PRES   REMARKS
SAN ANGELO     SUNNY     81  62  52 S17       29.91S
ABILENE        SUNNY     82  63  52 S15G23    29.91F
DYESS AFB      MOSUNNY   81  62  52 S15G21    29.89F
JUNCTION       SUNNY     79  64  60 CALM      29.92F
SWEETWATER     MOSUNNY   79  63  57 S20       29.95S
BROWNWOOD      SUNNY     81  63  54 S7        29.92F
COLEMAN        SUNNY     81  60  48 S14       29.93S
SONORA         MOSUNNY   79  64  61 S12G21    29.98R
OZONA          FAIR      79  63  57 S17       29.96S
BRADY          SUNNY     81  63  54 S9        29.93S
$$

TEXAS PANHANDLE/OKLAHOMA PANHANDLE

CITY           SKY/WX    TMP DP  RH WIND       PRES   REMARKS
AMARILLO       SUNNY     73  59  61 S18       29.89S
BORGER         SUNNY     75  56  51 SW10      29.86F
CANADIAN       SUNNY     76  60  56 SW16      29.84F
DALHART        SUNNY     68  48  48 NW9       29.91R
DUMAS          SUNNY     69  59  72 SW13      29.89S
GUYMON         NOT AVBL
HEREFORD       SUNNY     72  61  67 SW14      29.91F
PAMPA          SUNNY     74  57  53 SW18G30   29.87F
PERRYTON       SUNNY     74  57  55 SW20G26   29.85R
$$

SOUTHERN PANHANDLE/SOUTH PLAINS/ROLLING PLAINS

CITY           SKY/WX    TMP DP  RH WIND       PRES   REMARKS
LUBBOCK        MOSUNNY   72  60  66 S15       29.92S
SNYDER         PTSUNNY   73  64  74 S13G21    29.91F
CHILDRESS      LGT RAIN  74  60  61 S9        29.90S
SEMINOLE       SUNNY     74  60  61 SW7       29.93F
$$

PERMIAN BASIN

CITY           SKY/WX    TMP DP  RH WIND       PRES   REMARKS
MIDLAND        SUNNY     77  61  57 S14       29.91S
ODESSA         SUNNY     76  61  59 SW10      29.92S
WINK           SUNNY     76  61  59 S5        29.90R
$$

FAR WEST/SOUTHWEST MOUNTAINS/TRANS PECOS

CITY           SKY/WX    TMP DP  RH WIND       PRES   REMARKS
ALPINE         MOSUNNY   78  55  45 SW12      30.08S
DRYDEN           N/A     78  64  61 CALM      29.91R
EL PASO        MOSUNNY   77  49  37 W9        29.97S
FORT STOCKTON  SUNNY     82  58  43 SW15      29.92S
GUADALUPE PASS SUNNY     68  58  70 SW15      30.07S
MARFA          SUNNY     72  57  60 CALM      30.08S
PECOS          SUNNY     76  60  57 CALM      29.90S
$$

DALLAS/FORT WORTH METROPLEX

CITY           SKY/WX    TMP DP  RH WIND       PRES   REMARKS
DFW AIRPORT    PTSUNNY   83  68  60 S10       29.90S
FTW MEACHAM    SUNNY     82  68  62 SW7       29.89F
DAL-EXECUTIVE  SUNNY     84  68  58 VRB6      29.90F
GRAND PRAIRIE  SUNNY     82  66  57 MISG      29.91F
ADDISON        NOT AVBL
MESQUITE       SUNNY     82  68  61 S5        29.91F
LANCASTER      MOSUNNY   82  67  61 SE8       29.91F
$$

NORTH CENTRAL TEXAS

CITY           SKY/WX    TMP DP  RH WIND       PRES   REMARKS
SHRMAN/DENISON SUNNY     80  67  66 S6        29.93S
GAINESVILLE    MOSUNNY   79  67  67 S6        29.93F
BRIDGEPORT     SUNNY     83  59  44 S7        29.92F
DENTON         MOSUNNY   83  67  58 S9        29.90F
WAXAHACHIE     SUNNY     82  67  58 S8        29.92S
GRANBURY       SUNNY     85  61  44 S9        29.91F
$$

WESTERN NORTH TEXAS

CITY           SKY/WX    TMP DP  RH WIND       PRES   REMARKS
WICHITA FALLS  SUNNY     81  61  50 S10       29.88F
VERNON         MOSUNNY   82  59  46 S13       29.88F
BRECKENRIDGE   SUNNY     84  60  44 SW12G17   29.90F
COMANCHE       SUNNY     83  59  43 S8        29.93S
$$

CENTRAL AND SOUTH CENTRAL TEXAS

CITY           SKY/WX    TMP DP  RH WIND       PRES   REMARKS
AUSTIN/BERGSTM MOSUNNY   81  68  64 S3        29.90S
WACO           MOSUNNY   83  69  62 S8        29.91S
HILLSBORO      PTSUNNY   83  68  60 S10       29.91F
TEMPLE         SUNNY     81  64  57 S8        29.91S VSB 1
KILLEEN-GRAY   MOSUNNY   82  63  51 VRB5      29.92S
FORT HOOD      SUNNY     84  64  50 CALM      29.92S
GEORGETOWN     SUNNY     81  64  57 CALM      29.91F
LAGO VISTA     FAIR      82  64  53 SE6       29.93S
SAN MARCOS     SUNNY     81  66  61 MISG      29.91S
NEW BRAUNFELS  SUNNY     82  69  64 CALM      29.89S
RANDOLPH AFB   MOSUNNY   81  69  65 VRB3      29.91S
SAN ANTONIO    MOSUNNY   82  68  62 SE7       29.91S
STINSON        SUNNY     83  68  60 SE3       29.88S
PLEASANTON     NOT AVBL
LA GRANGE      CLOUDY    81  74  79 N3        29.88S
GIDDINGS       PTSUNNY   80  70  71 CALM      29.93S
$$

EAST TEXAS

CITY           SKY/WX    TMP DP  RH WIND       PRES   REMARKS
PARIS          MOSUNNY   79  63  57 S7        29.93S
CLARKSVILLE    NOT AVBL
TYLER          SUNNY     83  69  62 S8        29.92S
LONGVIEW       MOSUNNY   84  67  56 SE6       29.91F
PALESTINE      MOSUNNY   82  71  70 S3        29.92F
NACOGDOCHES    PTSUNNY   82  72  69 S7        29.92S
$$

TEXAS HILL COUNTRY AND EDWARDS PLATEAU

CITY           SKY/WX    TMP DP  RH WIND       PRES   REMARKS
LLANO          SUNNY     81  66  61 SW5       29.95S
HORSESHOE BAY  FAIR      82  63  52 CALM      29.92S
KERRVILLE      SUNNY     79  69  72 S8        29.94S
FREDERICKSBRG  MOSUNNY   78  66  67 SW6       29.94S
ROCKSPRINGS    SUNNY     79  64  61 S10       29.98S
HONDO          SUNNY     81  68  64 VRB3      29.93R
UVALDE         SUNNY     79  71  76 CALM      29.92S
DEL RIO        SUNNY     80  70  71 SE7       29.88S
$$

SOUTHEAST TEXAS

CITY           SKY/WX    TMP DP  RH WIND       PRES   REMARKS
COLLEGE STN    MOSUNNY   82  72  71 CALM      29.90S
CALDWELL       SUNNY     81  72  74 CALM      29.93S
CROCKETT       MOSUNNY   86  75  70 SE7       29.93F
BRENHAM        PTSUNNY   82  73  74 NW3       29.90S
HUNTSVILLE     CLOUDY    81  71  71 E3        29.90F
CONROE         MOSUNNY   82  72  71 SE6       29.90S
HOUSTON BUSH   MOSUNNY   83  74  74 SE7       29.88S
HOUSTON HOBBY  MOSUNNY   82  73  74 SE5       29.87F
PERLAND        PTSUNNY   85  74  69 SE9       29.89S
WHARTON        PTSUNNY   81  73  76 E6        29.88F
$$

THE UPPER TEXAS COAST

CITY           SKY/WX    TMP DP  RH WIND       PRES   REMARKS
ORANGE         MOSUNNY   82  75  79 E3        29.91S
PORT ARTHUR    PTSUNNY   84  74  71 SE8       29.89S
GALVESTON      MOSUNNY   83  76  79 E9        29.88F
ANGLETON       MOSUNNY   82  73  74 E7        29.88F
BAY CITY       MOSUNNY   85  76  75 E6        29.87F
$$

TEXAS COASTAL BEND, RIO GRANDE PLAINS DEEP SOUTH TEXAS

CITY           SKY/WX    TMP DP  RH WIND       PRES   REMARKS
VICTORIA       MOSUNNY   84  74  71 E6        29.88S
BEEVILLE       PTSUNNY   82  73  72 CALM      29.88S
ROCKPORT       PTSUNNY   81  75  82 E7        29.86S
PORT ARANSAS   CLOUDY    78  75  88 E8        29.86S
PORT LAVACA    PTSUNNY   82  74  78 E8        29.87S
CORPUS CHRISTI PTSUNNY   81  76  84 N8        29.85S
KINGSVILLE NAS PTSUNNY   82  78  88 NE7       29.86S
COTULLA        SUNNY     83  69  62 SE7       29.89S
LAREDO         SUNNY     83  70  64 SW3       29.91S
BROWNSVILLE    MOSUNNY   83  79  88 S8        29.86S
PORT ISABEL    PTSUNNY   83  75  77 NW5       29.86R HAZE
HEBBRONVILLE     N/A     80  72  75 NE3       29.89S
MCALLEN        CLOUDY    80  74  81 CALM      29.87S
WESLACO        CLOUDY    79  73  81 CALM      29.86S
FALFURRIAS     MOSUNNY   80  75  86 NE6       29.86S
EDINBURG       CLOUDY    82  74  77 CALM      29.86S
$$


USA.gov is the U.S. government's official web portal to all federal, state and local government web resources and services.